Weather in Nizhneye Sancheleyevo

Russia / Samara Oblast     53°40′38″N   49°25′36″E
temp.,
°C
wind,
m/s
gust,
m/s
humid.,
%
clouds,
%
prec.,
mm/h
press.,
hPa
HPBL,
m
1 march, mon
mon101:00−17nnw369895 0.0 1016111
04:00−19nnw349986 0.1 101874
07:00−21nnw349965 0.0 102045
10:00−18nnw479667 0.0 1022237
13:00−15nw359377 0.0 1022325
16:00−14nw369280 0.0 1022357
19:00−19w119919 0.0 102120
22:00−17ssw349733 0.0 102149
2 march, tue
tue201:00−14ssw589795 0.0 1018173
04:00−12ssw6109598 0.0 1015262
07:00−9ssw71395100 1.3 1011441
10:00−4sw81396100 2.9 1008594
13:00−1sw71198100 3.1 1005680
16:000sw71299100 5.7 1002659
19:000w4898100 1.5 1001435
22:00−2w4896100 1.8 1001216
3 march, wed
wed301:00−7wnw349455 0.0 100253
04:00−9w239442 0.1 100325
07:00−9w239587 0.1 100338
10:00−7wnw359693 0.1 1004240
13:00−4wnw4694100 0.1 1004436
16:00−3nw588999 0.3 1005719
19:00−7nw389697 0.1 1006233
22:00−9wnw389695 0.2 1008178
4 march, thu
thu401:00−11wnw4893100 0.1 1008150
04:00−13sw349464 0.1 100937
07:00−10sw489579 0.1 1008192
10:00−7sw5109388 0.1 1008413
13:00−2sw61087100 0.0 1006912
16:00−1sw81387100 0.1 10041025
19:00−1sw91688100 0.4 1001897
22:000sw91693100 0.6 1000953
5 march, fri
fri501:000sw91687100 0.1 998985
04:00−1sw91686100 0.1 997894
07:00−1w8149697 0.3 1000670
10:00−5wnw5128782 0.6 1005539
13:00−5nw48821 0.0 1008531
16:00−5nnw23891 0.0 1010128
19:00−10nnw12880 0.0 101221
22:00−12nw129111 0.0 101421